Tracking 19476 objects as of 17-Jan-2019
HD Live streaming from Space Station
objects crossing your sky now

GOES 6

Track GOES 6 now!
GOES 6 is classified as:


NORAD ID: 14050
Int'l Code: 1983-041A
Perigee: 35,771.3 km
Apogee: 35,799.5 km
Inclination: 14.1 °
Period: 1,435.7 minutes
Semi major axis: 42156 km
RCS: 1.9976 m2 (large)
Launch date: April 28, 1983
Source: United States (US)
Launch site: AIR FORCE EASTERN TEST RANGE (AFETR)
aabbcc
Your satellite tracking list
Your tracking list is empty




NASA's NSSDC Master Catalog

Two Line Element Set (TLE):
1 14050U 83041A   19017.49105147  .00000043  00000-0  00000+0 0  9991
2 14050  14.1243 343.8787 0003344 322.8479 216.6575  1.00301613188909
Source of the keplerian elements: AFSPC